Terminal Aerodrome Forecast
Issued by NWS Atlanta, GA

Home | Current Version | Previous Version | Text Only | Print | Product List | Glossary On
Versions: 1 2 3 4 5 6 7 8 9 10 11 12 13 14 15 16 17 18 19 20
000
FTUS42 KFFC 240741 AAA
TAFMCN
TAF AMD
KMCN 240741Z 2408/2506 10003KT P6SM BKN025
      TEMPO 2408/2410 SCT025
     FM241000 09004KT P6SM SCT008 BKN015
     FM241400 10006KT P6SM SCT025 BKN060
     FM241600 10007KT P6SM SCT035 SCT060
     FM242000 09007KT P6SM SCT045 SCT070
     FM250100 09003KT P6SM SCT060 SCT150=

USA.gov is the U.S. government's official web portal to all federal, state and local government web resources and services.